����������;��������(kVARh)
2018-05-07 00:00;5,5
2018-05-07 00:15;5,4
2018-05-07 00:30;4,55
2018-05-07 00:45;0,15
2018-05-07 01:00;0,4
2018-05-07 01:15;1,6
2018-05-07 01:30;1,5
2018-05-07 01:45;0,95
2018-05-07 02:00;1,15
2018-05-07 02:15;1,4
2018-05-07 02:30;1,25
2018-05-07 02:45;1,6
2018-05-07 03:00;1,4
2018-05-07 03:15;1,05
2018-05-07 03:30;2
2018-05-07 03:45;1,9
2018-05-07 04:00;1,05
2018-05-07 04:15;2,1
2018-05-07 04:30;2,55
2018-05-07 04:45;2,1
2018-05-07 05:00;3,25
2018-05-07 05:15;2,65
2018-05-07 05:30;2,1
2018-05-07 05:45;3,2
2018-05-07 06:00;3,4
2018-05-07 06:15;3,05
2018-05-07 06:30;1,3
2018-05-07 06:45;0,1
2018-05-07 07:00;0,25
2018-05-07 07:15;0
2018-05-07 07:30;2,7
2018-05-07 07:45;7,6
2018-05-07 08:00;10,15
2018-05-07 08:15;11,95
2018-05-07 08:30;13,9
2018-05-07 08:45;16,7
2018-05-07 09:00;19,75
2018-05-07 09:15;46,9
2018-05-07 09:30;28,55
2018-05-07 09:45;19,75
2018-05-07 10:00;22,7
2018-05-07 10:15;26,8
2018-05-07 10:30;25,75
2018-05-07 10:45;26,15
2018-05-07 11:00;27,8
2018-05-07 11:15;29,45
2018-05-07 11:30;35,7
2018-05-07 11:45;38,75
2018-05-07 12:00;34,85
2018-05-07 12:15;34,8
2018-05-07 12:30;38
2018-05-07 12:45;37
2018-05-07 13:00;35,5
2018-05-07 13:15;35,3
2018-05-07 13:30;34,9
2018-05-07 13:45;34
2018-05-07 14:00;35,1
2018-05-07 14:15;35,2
2018-05-07 14:30;35,05
2018-05-07 14:45;33
2018-05-07 15:00;31,6
2018-05-07 15:15;31,1
2018-05-07 15:30;33,15
2018-05-07 15:45;29,65
2018-05-07 16:00;30,15
2018-05-07 16:15;24,35
2018-05-07 16:30;24,45
2018-05-07 16:45;21,15
2018-05-07 17:00;18,95
2018-05-07 17:15;24,65
2018-05-07 17:30;28,25
2018-05-07 17:45;26,8
2018-05-07 18:00;25
2018-05-07 18:15;23
2018-05-07 18:30;22,1
2018-05-07 18:45;20,9
2018-05-07 19:00;21,95
2018-05-07 19:15;23,4
2018-05-07 19:30;22,25
2018-05-07 19:45;19,55
2018-05-07 20:00;17,65
2018-05-07 20:15;16,7
2018-05-07 20:30;16,9
2018-05-07 20:45;14,5
2018-05-07 21:00;14,6
2018-05-07 21:15;13,7
2018-05-07 21:30;14,95
2018-05-07 21:45;13,3
2018-05-07 22:00;13,15
2018-05-07 22:15;11,4
2018-05-07 22:30;10,95
2018-05-07 22:45;8,6
2018-05-07 23:00;8,15
2018-05-07 23:15;6,85
2018-05-07 23:30;7,45
2018-05-07 23:45;8,75
2018-05-08 00:00;7,45
2018-05-08 00:15;4,25
2018-05-08 00:30;2,55
2018-05-08 00:45;3,1
2018-05-08 01:00;3,5
2018-05-08 01:15;5
2018-05-08 01:30;5,75
2018-05-08 01:45;6,65
2018-05-08 02:00;5,2
2018-05-08 02:15;3,05
2018-05-08 02:30;3
2018-05-08 02:45;2,65
2018-05-08 03:00;3
2018-05-08 03:15;3,5
2018-05-08 03:30;4,1
2018-05-08 03:45;4,35
2018-05-08 04:00;4,3
2018-05-08 04:15;4,25
2018-05-08 04:30;4,85
2018-05-08 04:45;2,15
2018-05-08 05:00;1,45
2018-05-08 05:15;1,15
2018-05-08 05:30;1,15
2018-05-08 05:45;0,85
2018-05-08 06:00;0,7
2018-05-08 06:15;1,65
2018-05-08 06:30;0,05
2018-05-08 06:45;0,2
2018-05-08 07:00;0,05
2018-05-08 07:15;0,05
2018-05-08 07:30;1,5
2018-05-08 07:45;8,05
2018-05-08 08:00;9,55
2018-05-08 08:15;13,1
2018-05-08 08:30;13,5
2018-05-08 08:45;14,8
2018-05-08 09:00;16,4
2018-05-08 09:15;45,95
2018-05-08 09:30;26,7
2018-05-08 09:45;18,8
2018-05-08 10:00;18,9
2018-05-08 10:15;24,75
2018-05-08 10:30;25,7
2018-05-08 10:45;33,45
2018-05-08 11:00;26,65
2018-05-08 11:15;30,95
2018-05-08 11:30;32,85
2018-05-08 11:45;33,6
2018-05-08 12:00;31,1
2018-05-08 12:15;31,45
2018-05-08 12:30;39,35
2018-05-08 12:45;35,2
2018-05-08 13:00;37,9
2018-05-08 13:15;33,15
2018-05-08 13:30;32,05
2018-05-08 13:45;33,4
2018-05-08 14:00;35,1
2018-05-08 14:15;35,85
2018-05-08 14:30;32,65
2018-05-08 14:45;35,9
2018-05-08 15:00;37,25
2018-05-08 15:15;37,35
2018-05-08 15:30;36,95
2018-05-08 15:45;32,85
2018-05-08 16:00;31,75
2018-05-08 16:15;26,25
2018-05-08 16:30;26,4
2018-05-08 16:45;28,6
2018-05-08 17:00;19,45
2018-05-08 17:15;16,5
2018-05-08 17:30;23,05
2018-05-08 17:45;16,2
2018-05-08 18:00;18,15
2018-05-08 18:15;11,6
2018-05-08 18:30;18,15
2018-05-08 18:45;15,85
2018-05-08 19:00;12,35
2018-05-08 19:15;14,8
2018-05-08 19:30;10,75
2018-05-08 19:45;10,35
2018-05-08 20:00;8,5
2018-05-08 20:15;9,2
2018-05-08 20:30;8,6
2018-05-08 20:45;7,5
2018-05-08 21:00;5,45
2018-05-08 21:15;7,55
2018-05-08 21:30;8,4
2018-05-08 21:45;8,35
2018-05-08 22:00;3,75
2018-05-08 22:15;4,3
2018-05-08 22:30;3,4
2018-05-08 22:45;4,85
2018-05-08 23:00;3,1
2018-05-08 23:15;2,55
2018-05-08 23:30;1,9
2018-05-08 23:45;3,7
2018-05-09 00:00;1,7
2018-05-09 00:15;0,25
2018-05-09 00:30;0,1
2018-05-09 00:45;1,65
2018-05-09 01:00;2,9
2018-05-09 01:15;0,35
2018-05-09 01:30;0,05
2018-05-09 01:45;0
2018-05-09 02:00;0
2018-05-09 02:15;0
2018-05-09 02:30;0
2018-05-09 02:45;0,05
2018-05-09 03:00;0
2018-05-09 03:15;0
2018-05-09 03:30;0
2018-05-09 03:45;0
2018-05-09 04:00;0
2018-05-09 04:15;0,25
2018-05-09 04:30;3,1
2018-05-09 04:45;7,1
2018-05-09 05:00;7,3
2018-05-09 05:15;7,95
2018-05-09 05:30;7,6
2018-05-09 05:45;8,7
2018-05-09 06:00;7,25
2018-05-09 06:15;7,8
2018-05-09 06:30;5,4
2018-05-09 06:45;2,9
2018-05-09 07:00;3
2018-05-09 07:15;1,75
2018-05-09 07:30;2,8
2018-05-09 07:45;9,1
2018-05-09 08:00;9,65
2018-05-09 08:15;9,2
2018-05-09 08:30;11,05
2018-05-09 08:45;14,95
2018-05-09 09:00;19,5
2018-05-09 09:15;50,1
2018-05-09 09:30;23,15
2018-05-09 09:45;27,2
2018-05-09 10:00;24,15
2018-05-09 10:15;25,2
2018-05-09 10:30;32,7
2018-05-09 10:45;27,3
2018-05-09 11:00;31
2018-05-09 11:15;37,4
2018-05-09 11:30;36,3
2018-05-09 11:45;37,85
2018-05-09 12:00;37,9
2018-05-09 12:15;35,1
2018-05-09 12:30;37,75
2018-05-09 12:45;37,85
2018-05-09 13:00;37,15
2018-05-09 13:15;36,1
2018-05-09 13:30;37,4
2018-05-09 13:45;32,15
2018-05-09 14:00;35,75
2018-05-09 14:15;37,6
2018-05-09 14:30;34,85
2018-05-09 14:45;33,4
2018-05-09 15:00;33,4
2018-05-09 15:15;32,75
2018-05-09 15:30;34,8
2018-05-09 15:45;27,6
2018-05-09 16:00;29,7
2018-05-09 16:15;26,75
2018-05-09 16:30;30,5
2018-05-09 16:45;23,7
2018-05-09 17:00;20,8
2018-05-09 17:15;18,45
2018-05-09 17:30;21,5
2018-05-09 17:45;25,1
2018-05-09 18:00;17,75
2018-05-09 18:15;18
2018-05-09 18:30;13,55
2018-05-09 18:45;17,2
2018-05-09 19:00;21,5
2018-05-09 19:15;16,3
2018-05-09 19:30;14,4
2018-05-09 19:45;13,35
2018-05-09 20:00;13,6
2018-05-09 20:15;13
2018-05-09 20:30;13,15
2018-05-09 20:45;16,05
2018-05-09 21:00;18,75
2018-05-09 21:15;18,8
2018-05-09 21:30;18,1
2018-05-09 21:45;16,2
2018-05-09 22:00;16,2
2018-05-09 22:15;16,05
2018-05-09 22:30;14,05
2018-05-09 22:45;11,25
2018-05-09 23:00;11,2
2018-05-09 23:15;11,9
2018-05-09 23:30;10,3
2018-05-09 23:45;5,75
2018-05-10 00:00;5,4
2018-05-10 00:15;5,7
2018-05-10 00:30;6,05
2018-05-10 00:45;6,05
2018-05-10 01:00;2,25
2018-05-10 01:15;1,9
2018-05-10 01:30;2,25
2018-05-10 01:45;2,8
2018-05-10 02:00;3,5
2018-05-10 02:15;3,25
2018-05-10 02:30;2,95
2018-05-10 02:45;3,15
2018-05-10 03:00;3,2
2018-05-10 03:15;4,2
2018-05-10 03:30;5,2
2018-05-10 03:45;5,1
2018-05-10 04:00;5,4
2018-05-10 04:15;4,75
2018-05-10 04:30;5,2
2018-05-10 04:45;6,8
2018-05-10 05:00;7,35
2018-05-10 05:15;6,3
2018-05-10 05:30;7,3
2018-05-10 05:45;7,05
2018-05-10 06:00;6,3
2018-05-10 06:15;6,8
2018-05-10 06:30;5,8
2018-05-10 06:45;4,25
2018-05-10 07:00;3,1
2018-05-10 07:15;2,35
2018-05-10 07:30;1,7
2018-05-10 07:45;2,85
2018-05-10 08:00;8
2018-05-10 08:15;10,9
2018-05-10 08:30;10,75
2018-05-10 08:45;13,3
2018-05-10 09:00;20,5
2018-05-10 09:15;47,6
2018-05-10 09:30;28,9
2018-05-10 09:45;24,45
2018-05-10 10:00;28,05
2018-05-10 10:15;29,3
2018-05-10 10:30;28,65
2018-05-10 10:45;29,05
2018-05-10 11:00;26,5
2018-05-10 11:15;30,9
2018-05-10 11:30;31,7
2018-05-10 11:45;30,7
2018-05-10 12:00;36,45
2018-05-10 12:15;34,55
2018-05-10 12:30;33,2
2018-05-10 12:45;32,5
2018-05-10 13:00;32,95
2018-05-10 13:15;38,25
2018-05-10 13:30;31,75
2018-05-10 13:45;29,35
2018-05-10 14:00;35,6
2018-05-10 14:15;30,95
2018-05-10 14:30;35,35
2018-05-10 14:45;32,4
2018-05-10 15:00;31,65
2018-05-10 15:15;36,25
2018-05-10 15:30;28,95
2018-05-10 15:45;26,3
2018-05-10 16:00;37,05
2018-05-10 16:15;23,65
2018-05-10 16:30;25,7
2018-05-10 16:45;23,45
2018-05-10 17:00;20,2
2018-05-10 17:15;24,85
2018-05-10 17:30;14,85
2018-05-10 17:45;17,2
2018-05-10 18:00;14,15
2018-05-10 18:15;18,85
2018-05-10 18:30;11,85
2018-05-10 18:45;14,45
2018-05-10 19:00;10,5
2018-05-10 19:15;11,15
2018-05-10 19:30;11,3
2018-05-10 19:45;10,8
2018-05-10 20:00;9,45
2018-05-10 20:15;17
2018-05-10 20:30;16,55
2018-05-10 20:45;12,45
2018-05-10 21:00;11,55
2018-05-10 21:15;12,6
2018-05-10 21:30;13,55
2018-05-10 21:45;12,35
2018-05-10 22:00;10,55
2018-05-10 22:15;9,55
2018-05-10 22:30;8,75
2018-05-10 22:45;9,85
2018-05-10 23:00;11,1
2018-05-10 23:15;7,45
2018-05-10 23:30;4,1
2018-05-10 23:45;3,05
2018-05-11 00:00;3,15
2018-05-11 00:15;3,7
2018-05-11 00:30;3,6
2018-05-11 00:45;6,15
2018-05-11 01:00;5,7
2018-05-11 01:15;5,4
2018-05-11 01:30;2,75
2018-05-11 01:45;3,3
2018-05-11 02:00;4,6
2018-05-11 02:15;3,85
2018-05-11 02:30;4,05
2018-05-11 02:45;3
2018-05-11 03:00;1,3
2018-05-11 03:15;0,1
2018-05-11 03:30;0,95
2018-05-11 03:45;0,3
2018-05-11 04:00;0
2018-05-11 04:15;1,3
2018-05-11 04:30;1,75
2018-05-11 04:45;2,5
2018-05-11 05:00;2,8
2018-05-11 05:15;2,8
2018-05-11 05:30;3,1
2018-05-11 05:45;2,25
2018-05-11 06:00;3,25
2018-05-11 06:15;1,9
2018-05-11 06:30;0,8
2018-05-11 06:45;0,05
2018-05-11 07:00;0,25
2018-05-11 07:15;2,9
2018-05-11 07:30;6,4
2018-05-11 07:45;9,9
2018-05-11 08:00;13,75
2018-05-11 08:15;15,35
2018-05-11 08:30;14,45
2018-05-11 08:45;16,35
2018-05-11 09:00;20,3
2018-05-11 09:15;44,55
2018-05-11 09:30;18,6
2018-05-11 09:45;19,25
2018-05-11 10:00;19,6
2018-05-11 10:15;20,65
2018-05-11 10:30;24,5
2018-05-11 10:45;26
2018-05-11 11:00;27,35
2018-05-11 11:15;27,4
2018-05-11 11:30;38,55
2018-05-11 11:45;31,95
2018-05-11 12:00;36,95
2018-05-11 12:15;42,75
2018-05-11 12:30;35,2
2018-05-11 12:45;37,05
2018-05-11 13:00;40,2
2018-05-11 13:15;32,95
2018-05-11 13:30;31,45
2018-05-11 13:45;38
2018-05-11 14:00;31,5
2018-05-11 14:15;36,65
2018-05-11 14:30;32,65
2018-05-11 14:45;35,6
2018-05-11 15:00;30,85
2018-05-11 15:15;35,8
2018-05-11 15:30;29,35
2018-05-11 15:45;28,75
2018-05-11 16:00;25
2018-05-11 16:15;23,05
2018-05-11 16:30;22,65
2018-05-11 16:45;19,55
2018-05-11 17:00;22,4
2018-05-11 17:15;19,65
2018-05-11 17:30;16
2018-05-11 17:45;16,85
2018-05-11 18:00;14,65
2018-05-11 18:15;14,4
2018-05-11 18:30;11,3
2018-05-11 18:45;10,5
2018-05-11 19:00;7,8
2018-05-11 19:15;10,65
2018-05-11 19:30;6,15
2018-05-11 19:45;7,2
2018-05-11 20:00;5,9
2018-05-11 20:15;11,5
2018-05-11 20:30;12,95
2018-05-11 20:45;12,2
2018-05-11 21:00;10,45
2018-05-11 21:15;11,9
2018-05-11 21:30;12,25
2018-05-11 21:45;12,2
2018-05-11 22:00;9
2018-05-11 22:15;8,95
2018-05-11 22:30;9,45
2018-05-11 22:45;11,05
2018-05-11 23:00;12,5
2018-05-11 23:15;10,1
2018-05-11 23:30;9,35
2018-05-11 23:45;3,95
2018-05-12 00:00;0,35
2018-05-12 00:15;0,6
2018-05-12 00:30;0,85
2018-05-12 00:45;2,2
2018-05-12 01:00;0,7
2018-05-12 01:15;2
2018-05-12 01:30;2,65
2018-05-12 01:45;2,05
2018-05-12 02:00;3,6
2018-05-12 02:15;2,6
2018-05-12 02:30;3,3
2018-05-12 02:45;3,9
2018-05-12 03:00;3,4
2018-05-12 03:15;0,3
2018-05-12 03:30;0,3
2018-05-12 03:45;0,8
2018-05-12 04:00;0,55
2018-05-12 04:15;0,4
2018-05-12 04:30;0,95
2018-05-12 04:45;1,2
2018-05-12 05:00;0,8
2018-05-12 05:15;0,8
2018-05-12 05:30;0,8
2018-05-12 05:45;1,1
2018-05-12 06:00;1,1
2018-05-12 06:15;1,6
2018-05-12 06:30;1
2018-05-12 06:45;0,2
2018-05-12 07:00;0
2018-05-12 07:15;0
2018-05-12 07:30;0,3
2018-05-12 07:45;0
2018-05-12 08:00;0,85
2018-05-12 08:15;0
2018-05-12 08:30;1,6
2018-05-12 08:45;4,25
2018-05-12 09:00;3,8
2018-05-12 09:15;4,8
2018-05-12 09:30;7,6
2018-05-12 09:45;3,15
2018-05-12 10:00;5,3
2018-05-12 10:15;6,1
2018-05-12 10:30;5,9
2018-05-12 10:45;6,4
2018-05-12 11:00;5,95
2018-05-12 11:15;6,65
2018-05-12 11:30;10
2018-05-12 11:45;9,2
2018-05-12 12:00;7,75
2018-05-12 12:15;8,1
2018-05-12 12:30;7,2
2018-05-12 12:45;7,4
2018-05-12 13:00;7,95
2018-05-12 13:15;6,65
2018-05-12 13:30;7,9
2018-05-12 13:45;7
2018-05-12 14:00;9,95
2018-05-12 14:15;10,95
2018-05-12 14:30;9,9
2018-05-12 14:45;11,6
2018-05-12 15:00;13
2018-05-12 15:15;13,6
2018-05-12 15:30;15,45
2018-05-12 15:45;16,85
2018-05-12 16:00;15,6
2018-05-12 16:15;16,7
2018-05-12 16:30;13,3
2018-05-12 16:45;14,05
2018-05-12 17:00;13,75
2018-05-12 17:15;13,8
2018-05-12 17:30;13,3
2018-05-12 17:45;14,1
2018-05-12 18:00;12,3
2018-05-12 18:15;11,35
2018-05-12 18:30;12,6
2018-05-12 18:45;12,05
2018-05-12 19:00;11,6
2018-05-12 19:15;12,8
2018-05-12 19:30;11,4
2018-05-12 19:45;11,4
2018-05-12 20:00;11,2
2018-05-12 20:15;9,5
2018-05-12 20:30;10,4
2018-05-12 20:45;10,45
2018-05-12 21:00;9,4
2018-05-12 21:15;9,7
2018-05-12 21:30;9,45
2018-05-12 21:45;7,55
2018-05-12 22:00;9,9
2018-05-12 22:15;8,65
2018-05-12 22:30;3,95
2018-05-12 22:45;4,25
2018-05-12 23:00;4,5
2018-05-12 23:15;5,4
2018-05-12 23:30;0,5
2018-05-12 23:45;0
2018-05-13 00:00;0
2018-05-13 00:15;0
2018-05-13 00:30;0,2
2018-05-13 00:45;0
2018-05-13 01:00;0
2018-05-13 01:15;0,4
2018-05-13 01:30;1,2
2018-05-13 01:45;0,95
2018-05-13 02:00;1,85
2018-05-13 02:15;1,5
2018-05-13 02:30;1,8
2018-05-13 02:45;3,05
2018-05-13 03:00;2,55
2018-05-13 03:15;3,45
2018-05-13 03:30;3,35
2018-05-13 03:45;3,45
2018-05-13 04:00;3,15
2018-05-13 04:15;2,8
2018-05-13 04:30;3,75
2018-05-13 04:45;3,65
2018-05-13 05:00;4,7
2018-05-13 05:15;4,55
2018-05-13 05:30;4,25
2018-05-13 05:45;5,8
2018-05-13 06:00;5,7
2018-05-13 06:15;4,65
2018-05-13 06:30;3,25
2018-05-13 06:45;3,05
2018-05-13 07:00;3,25
2018-05-13 07:15;2,85
2018-05-13 07:30;3,25
2018-05-13 07:45;3,4
2018-05-13 08:00;1,6
2018-05-13 08:15;0,95
2018-05-13 08:30;3,9
2018-05-13 08:45;3,25
2018-05-13 09:00;3,7
2018-05-13 09:15;3,25
2018-05-13 09:30;2,35
2018-05-13 09:45;2,7
2018-05-13 10:00;6,3
2018-05-13 10:15;6,95
2018-05-13 10:30;10,4
2018-05-13 10:45;9,85
2018-05-13 11:00;9,4
2018-05-13 11:15;9,15
2018-05-13 11:30;9,05
2018-05-13 11:45;8,85
2018-05-13 12:00;8,1
2018-05-13 12:15;6,5
2018-05-13 12:30;7,95
2018-05-13 12:45;6,65
2018-05-13 13:00;7,3
2018-05-13 13:15;7,6
2018-05-13 13:30;9,65
2018-05-13 13:45;10,35
2018-05-13 14:00;9,75
2018-05-13 14:15;12,9
2018-05-13 14:30;12
2018-05-13 14:45;12,95
2018-05-13 15:00;14,9
2018-05-13 15:15;15,5
2018-05-13 15:30;16,75
2018-05-13 15:45;16,4
2018-05-13 16:00;16,6
2018-05-13 16:15;16,8
2018-05-13 16:30;15,35
2018-05-13 16:45;16,6
2018-05-13 17:00;14,55
2018-05-13 17:15;15,5
2018-05-13 17:30;15,1
2018-05-13 17:45;14,6
2018-05-13 18:00;15,75
2018-05-13 18:15;12,75
2018-05-13 18:30;11,35
2018-05-13 18:45;12,65
2018-05-13 19:00;12,1
2018-05-13 19:15;11,55
2018-05-13 19:30;13,35
2018-05-13 19:45;13,45
2018-05-13 20:00;14,45
2018-05-13 20:15;15,1
2018-05-13 20:30;15,8
2018-05-13 20:45;15,2
2018-05-13 21:00;13,2
2018-05-13 21:15;13,85
2018-05-13 21:30;14,1
2018-05-13 21:45;12,35
2018-05-13 22:00;12,75
2018-05-13 22:15;9,2
2018-05-13 22:30;8,95
2018-05-13 22:45;8,55
2018-05-13 23:00;9,55
2018-05-13 23:15;10,85
2018-05-13 23:30;9,35
2018-05-13 23:45;8

